M3YFM-13 Weather Reports


time (UTC)temp
F
wind
direction
speed
knots
gust
knots
rain 1hr
in
rain 24hr
in
rain mn
in
humidity
%
barometer
mb
20260505183348 58 117 2.6 6.1 0.00 0.00 0.00 50
20260505182848 58 60 3.5 8.7 0.00 0.00 0.00 49
20260505181847 58 113 1.7 6.1 0.00 0.00 0.00 48
20260505181347 59 118 1.7 5.2 0.00 0.00 0.00 48
20260505180847 59 108 1.7 5.2 0.00 0.00 0.00 48
20260505180346 59 8 1.7 5.2 0.00 0.00 0.00 48
20260505175846 59 62 1.7 4.3 0.00 0.00 0.00 48
20260505175346 59 90 1.7 5.2 0.00 0.00 0.00 49
20260505174846 59 84 2.6 5.2 0.00 0.00 0.00 49
20260505174345 59 107 2.6 7.0 0.00 0.00 0.00 48
20260505173845 59 21 1.7 5.2 0.00 0.00 0.00 47
20260505173345 59 18 1.7 6.1 0.00 0.00 0.00 47
20260505172844 59 21 1.7 5.2 0.00 0.00 0.00 46
20260505172344 60 70 1.7 5.2 0.00 0.00 0.00 46
20260505171844 59 80 1.7 6.1 0.00 0.00 0.00 46
20260505171344 59 23 3.5 7.0 0.00 0.00 0.00 46
20260505170843 59 34 2.6 6.1 0.00 0.00 0.00 45
20260505170343 59 30 2.6 7.0 0.00 0.00 0.00 46
20260505165843 59 357 2.6 8.7 0.00 0.00 0.00 46
20260505165342 59 89 1.7 6.1 0.00 0.00 0.00 46
20260505164842 59 48 3.5 7.8 0.00 0.00 0.00 46
20260505163842 59 69 2.6 7.0 0.00 0.00 0.00 46
20260505163341 59 100 1.7 5.2 0.00 0.00 0.00 46
20260505162841 59 23 2.6 5.2 0.00 0.00 0.00 46
20260505162340 60 38 2.6 7.8 0.00 0.00 0.00 46
20260505161340 59 89 2.6 7.0 0.00 0.00 0.00 47
20260505160839 59 52 3.5 8.7 0.00 0.00 0.00 46
20260505160339 59 68 2.6 7.8 0.00 0.00 0.00 46
20260505153337 60 76 1.7 7.0 0.00 0.00 0.00 46
20260505152837 60 41 1.7 5.2 0.00 0.00 0.00 46
20260505152337 60 72 2.6 7.0 0.00 0.00 0.00 46
20260505151836 60 96 2.6 6.1 0.00 0.00 0.00 46
20260505151336 60 103 1.7 6.1 0.00 0.00 0.00 47
20260505150836 60 83 2.6 7.8 0.00 0.00 0.00 46
20260505150335 62 110 1.7 5.2 0.00 0.00 0.00 45
20260505140332 62 93 2.6 7.0 0.00 0.00 0.00 45
20260505124828 63 58 1.7 4.3 0.00 0.00 0.00 45
20260505123827 63 90 2.6 6.1 0.00 0.00 0.00 44
20260505123327 63 158 1.7 7.0 0.00 0.00 0.00 44
20260505122827 64 21 3.5 8.7 0.00 0.00 0.00 42
20260505122326 63 69 1.7 5.2 0.00 0.00 0.00 44
20260505121826 63 108 2.6 7.0 0.00 0.00 0.00 42
20260505121326 63 31 2.6 7.8 0.00 0.00 0.00 43
20260505120825 63 63 2.6 7.8 0.00 0.00 0.00 44
20260505120325 63 34 2.6 7.8 0.00 0.00 0.00 44
20260505115825 61 25 2.6 5.2 0.00 0.00 0.00 46
20260505115325 61 70 2.6 7.8 0.00 0.00 0.00 46
20260505114824 62 44 1.7 5.2 0.00 0.00 0.00 47
20260505114324 61 94 2.6 6.1 0.00 0.00 0.00 48
20260505113824 61 80 0.9 6.1 0.00 0.00 0.00 48
20260505113323 61 83 2.6 7.0 0.00 0.00 0.00 48
20260505112823 61 13 2.6 6.1 0.00 0.00 0.00 48
20260505112323 60 90 3.5 10.4 0.00 0.00 0.00 50
20260505111823 60 118 3.5 8.7 0.00 0.00 0.00 49
20260505111322 60 46 2.6 7.0 0.00 0.00 0.00 48
20260505110822 59 353 1.7 5.2 0.00 0.00 0.00 50
20260505110322 58 69 2.6 7.0 0.00 0.00 0.00 49
20260505101818 58 114 2.6 7.8 0.00 0.00 0.00 50
20260505100817 60 7 4.3 8.7 0.00 0.00 0.00 51
20260505095817 59 41 3.5 7.8 0.00 0.00 0.00 51
20260505094816 59 80 2.6 7.0 0.00 0.00 0.00 53
20260505093815 58 66 2.6 7.8 0.00 0.00 0.00 53
20260505093315 58 87 3.5 9.6 0.00 0.00 0.00 51
20260505092815 58 42 2.6 7.0 0.00 0.00 0.00 53
20260505092315 58 86 3.5 9.6 0.00 0.00 0.00 53
20260505091814 58 87 5.2 9.6 0.00 0.00 0.00 49
20260505091314 60 11 2.6 6.1 0.00 0.00 0.00 52
20260505090313 59 18 3.5 7.0 0.00 0.00 0.00 53
20260505085813 58 49 2.6 6.1 0.00 0.00 0.00 55
20260505085313 57 34 2.6 8.7 0.00 0.00 0.00 54
20260505084813 56 32 2.6 7.8 0.00 0.00 0.00 56
20260505084312 56 94 2.6 7.8 0.00 0.00 0.00 59
20260505083812 56 59 2.6 7.8 0.00 0.00 0.00 60
20260505083312 56 28 2.6 8.7 0.00 0.00 0.00 61
20260505082811 55 60 3.5 8.7 0.00 0.00 0.00 63
20260505082311 55 6 3.5 9.6 0.00 0.00 0.00 63
20260505081811 55 60 1.7 7.0 0.00 0.00 0.00 66
20260505081311 54 82 2.6 7.0 0.00 0.00 0.00 66
20260505080810 54 83 2.6 8.7 0.00 0.00 0.00 67
20260505080310 53 108 1.7 4.3 0.00 0.00 0.00 68
20260505075309 53 52 1.7 5.2 0.00 0.00 0.00 72
20260505074809 53 93 1.7 5.2 0.00 0.00 0.00 73
20260505074309 52 42 1.7 5.2 0.00 0.00 0.00 75
20260505073809 51 42 2.6 7.0 0.00 0.00 0.00 76
20260505073308 52 42 1.7 7.0 0.00 0.00 0.00 77
20260505072808 51 38 0.9 3.5 0.00 0.00 0.00 79
20260505072308 50 44 0.9 4.3 0.00 0.00 0.00 79
20260505071808 50 41 0.0 0.9 0.00 0.00 0.00 80
20260505071307 50 31 0.0 3.5 0.00 0.00 0.00 81
20260505070807 49 68 0.9 4.3 0.00 0.00 0.00 81
20260505070307 50 107 0.0 2.6 0.00 0.00 0.00 82
20260505065806 49 77 0.9 3.5 0.00 0.00 0.00 83
20260505065306 49 24 0.0 2.6 0.00 0.00 0.00 84
20260505064806 49 103 0.9 5.2 0.00 0.00 0.00 85
20260505064306 48 77 0.9 3.5 0.00 0.00 0.00 86
20260505063805 48 76 0.9 3.5 0.00 0.00 0.00 87
20260505063305 49 98 0.9 3.5 0.00 0.00 0.00 88
20260505062805 48 98 0.9 4.3 0.00 0.00 0.00 90
20260505062304 48 141 0.9 4.3 0.00 0.00 0.00 91
20260505061804 48 122 0.0 2.6 0.00 0.00 0.00 92
20260505061304 48 0 0.0 0.0 0.00 0.00 0.00 92
20260505060804 46 0 0.0 0.0 0.00 0.00 0.00 92
20260505060303 46 7 0.0 0.9 0.00 0.00 0.00 92
20260505055803 46 0 0.0 0.0 0.00 0.00 0.00 92
20260505055303 45 0 0.0 0.0 0.00 0.00 0.00 92
20260505054801 45 0 0.0 0.0 0.00 0.00 0.00 91
20260505054301 45 21 0.0 2.6 0.00 0.00 0.00 92
20260505053801 45 32 0.0 0.9 0.00 0.00 0.00 92
20260505053300 45 0 0.0 0.0 0.00 0.00 0.00 91
20260505052800 44 0 0.0 0.0 0.00 0.00 0.00 92
20260505052300 45 0 0.0 0.0 0.00 0.00 0.00 92
20260505051800 45 0 0.0 0.0 0.00 0.00 0.00 91
20260505051259 45 0 0.0 0.0 0.00 0.00 0.00 91
20260505050758 45 0 0.0 0.0 0.00 0.00 0.00 91
20260505050258 45 0 0.0 0.0 0.00 0.00 0.00 91
20260505041756 45 0 0.0 0.0 0.00 0.00 0.00 91
20260505041255 45 0 0.0 0.0 0.00 0.00 0.00 91
20260505040750 45 0 0.0 0.0 0.00 0.00 0.00 91
20260505040250 45 0 0.0 0.0 0.00 0.00 0.00 90
20260505035750 45 0 0.0 0.0 0.00 0.00 0.00 90
20260505035249 45 0 0.0 0.0 0.00 0.00 0.00 90
20260505034749 46 0 0.0 0.0 0.00 0.00 0.00 90
20260505034249 46 0 0.0 0.0 0.00 0.00 0.00 90
20260505033748 46 0 0.0 0.0 0.00 0.00 0.00 90
20260505033247 46 0 0.0 0.0 0.00 0.00 0.00 90
20260505032747 46 0 0.0 0.0 0.00 0.00 0.00 90
20260505031746 45 18 0.0 0.9 0.00 0.00 0.00 90
20260505031246 46 0 0.0 0.0 0.00 0.00 0.00 90
20260505030745 46 38 0.0 1.7 0.00 0.00 0.00 90
20260505030245 46 10 0.0 0.9 0.00 0.00 0.00 90
20260505025745 46 87 0.0 0.9 0.00 0.00 0.00 89
20260505025245 46 0 0.0 0.0 0.00 0.00 0.00 89
20260505024744 46 0 0.0 0.0 0.00 0.00 0.00 89
20260505024244 46 0 0.0 0.0 0.00 0.00 0.00 89
20260505023744 46 0 0.0 0.0 0.00 0.00 0.00 89
20260505023243 46 0 0.0 0.0 0.00 0.00 0.00 89
20260505022742 47 0 0.0 0.0 0.00 0.00 0.00 89
20260505022242 46 0 0.0 0.0 0.00 0.00 0.00 89
20260505021742 47 0 0.0 0.0 0.00 0.00 0.00 89
20260505021241 47 0 0.0 0.0 0.00 0.00 0.00 88
20260505020741 46 0 0.0 0.0 0.00 0.00 0.00 88
20260505020241 47 0 0.0 0.0 0.00 0.00 0.00 88
20260505015741 48 0 0.0 0.0 0.00 0.00 0.00 88
20260505015240 48 0 0.0 0.0 0.00 0.00 0.00 88
20260505014740 48 0 0.0 0.0 0.00 0.00 0.00 88
20260505014240 48 0 0.0 0.0 0.00 0.00 0.00 88
20260505013739 48 0 0.0 0.0 0.00 0.00 0.00 88
20260505013239 48 0 0.0 0.0 0.00 0.00 0.00 87
20260505012739 48 0 0.0 0.0 0.00 0.00 0.00 87
20260505012239 49 0 0.0 0.0 0.00 0.00 0.00 87
20260505011738 49 0 0.0 0.0 0.00 0.00 0.00 87
20260505011238 48 0 0.0 0.0 0.00 0.00 0.00 87
20260505010738 48 0 0.0 0.0 0.00 0.00 0.00 87
20260505010237 49 0 0.0 0.0 0.00 0.00 0.00 87
20260505005737 49 0 0.0 0.0 0.00 0.00 0.00 87
20260505005237 49 0 0.0 0.0 0.00 0.00 0.00 87
20260505004737 50 0 0.0 0.0 0.00 0.00 0.00 87
20260505004236 49 0 0.0 0.0 0.00 0.00 0.00 87
20260505003736 49 0 0.0 0.0 0.00 0.00 0.00 86
20260505003236 49 0 0.0 0.0 0.00 0.00 0.00 86
20260505002735 49 0 0.0 0.0 0.00 0.00 0.00 86
20260505002235 50 0 0.0 0.0 0.00 0.00 0.00 86
20260505001735 49 0 0.0 0.0 0.00 0.00 0.00 85
20260505001235 50 0 0.0 0.0 0.00 0.00 0.00 85
20260505000734 50 0 0.0 0.0 0.00 0.00 0.00 85
20260505000234 52 0 0.0 0.0 0.00 0.00 0.00 85
20260504235734 51 0 0.0 0.0 0.00 0.00 0.00 85
20260504235233 51 0 0.0 0.0 0.00 0.00 0.00 85
20260504234733 51 0 0.0 0.0 0.00 0.00 0.00 84
20260504234233 51 0 0.0 0.0 0.00 0.00 0.00 84
20260504233733 51 0 0.0 0.0 0.00 0.00 0.00 84
20260504233232 51 0 0.0 0.0 0.00 0.00 0.00 84
20260504232732 52 0 0.0 0.0 0.00 0.00 0.00 84
20260504232232 52 0 0.0 0.0 0.00 0.00 0.00 84
20260504231731 51 0 0.0 0.0 0.00 0.00 0.00 84
20260504231231 51 0 0.0 0.0 0.00 0.00 0.00 83
20260504230731 51 0 0.0 0.0 0.00 0.00 0.00 83
20260504230231 52 0 0.0 0.0 0.00 0.00 0.00 83
20260504225730 52 0 0.0 0.0 0.00 0.00 0.00 83
20260504225230 52 0 0.0 0.0 0.00 0.00 0.00 82
20260504224730 52 107 0.9 3.5 0.00 0.00 0.00 82
20260504224229 52 113 0.0 2.6 0.00 0.00 0.00 82
20260504223729 53 80 0.0 0.9 0.00 0.00 0.00 82
20260504223229 53 0 0.0 0.0 0.00 0.00 0.00 81
20260504222729 53 0 0.0 0.0 0.00 0.00 0.00 81
20260504222228 53 0 0.0 0.0 0.00 0.00 0.00 81
20260504221728 53 100 0.9 3.5 0.00 0.00 0.00 81
20260504221228 53 98 0.9 2.6 0.00 0.00 0.00 80
20260504220727 53 114 1.7 4.3 0.00 0.00 0.00 80
20260504220227 53 105 1.7 4.3 0.00 0.00 0.00 80
20260504215727 54 104 1.7 5.2 0.00 0.00 0.00 79
20260504215227 54 96 0.9 3.5 0.00 0.00 0.00 78
20260504214726 54 94 1.7 4.3 0.00 0.00 0.00 78
20260504214226 55 87 0.9 3.5 0.00 0.00 0.00 77
20260504213726 54 136 0.9 5.2 0.00 0.00 0.00 77
20260504213226 55 139 1.7 5.2 0.00 0.00 0.00 76
20260504212725 55 162 1.7 5.2 0.00 0.00 0.00 76
20260504212225 55 134 1.7 5.2 0.00 0.00 0.00 76
20260504211725 54 134 0.9 4.3 0.00 0.00 0.00 76
20260504211224 55 118 2.6 5.2 0.00 0.00 0.00 76
20260504210724 55 153 0.9 5.2 0.00 0.00 0.00 76
20260504210224 55 136 0.9 3.5 0.00 0.00 0.00 76
20260504205724 55 127 0.9 3.5 0.00 0.00 0.00 76
20260504205223 56 132 1.7 6.1 0.00 0.00 0.00 76
20260504204723 56 80 1.7 5.2 0.00 0.00 0.00 76
20260504204223 56 103 2.6 7.0 0.00 0.00 0.00 75
20260504203722 56 105 3.5 6.1 0.00 0.00 0.00 76
20260504203222 56 97 1.7 5.2 0.00 0.00 0.00 76
20260504202722 55 98 2.6 4.3 0.00 0.00 0.00 76
20260504202222 56 87 1.7 4.3 0.00 0.00 0.00 76
20260504201721 56 110 1.7 4.3 0.00 0.00 0.00 76
20260504201221 56 94 1.7 5.2 0.00 0.00 0.00 76
20260504200721 56 96 1.7 5.2 0.00 0.00 0.00 76
20260504200220 57 96 0.9 2.6 0.00 0.00 0.00 75
20260504195720 57 181 0.9 3.5 0.00 0.00 0.00 75
20260504195220 56 121 0.9 4.3 0.00 0.00 0.00 74
20260504194720 56 91 0.9 2.6 0.00 0.00 0.00 74
20260504194220 57 129 1.7 4.3 0.00 0.00 0.00 74
20260504193719 57 111 0.9 3.5 0.00 0.00 0.00 74
20260504193218 57 138 0.9 4.3 0.00 0.00 0.00 74
20260504192716 57 135 1.7 4.3 0.00 0.00 0.00 74
20260504192216 57 121 1.7 4.3 0.00 0.00 0.00 74
20260504191716 57 127 0.9 5.2 0.00 0.00 0.00 74
20260504191215 57 148 0.9 3.5 0.00 0.00 0.00 73
20260504190715 57 152 0.9 3.5 0.00 0.00 0.00 73
20260504190215 57 118 0.0 2.6 0.00 0.00 0.00 73
20260504185714 57 127 0.9 3.5 0.00 0.00 0.00 72
20260504185214 58 120 2.6 6.1 0.00 0.00 0.00 72
20260504184214 58 162 1.7 5.2 0.00 0.00 0.00 72